Location: Unspecified
(0.0000°N, 0.0000°E)
Time: 23:14:11
(UTC+00:00)

NUDT-PHONESAT - Pass Details

Date: 08 December 2017
Orbit: 495 x 513 km, 97.4° (Epoch: 16 January)

Event Time Altitude Azimuth Distance (km) Brightness Sun altitude
Rises 05:01:16 0° 49° (NE) 2,613 ? -11.7°
Reaches altitude 10° 05:05:09 10° 91° (E) 1,730 ? -10.8°
Maximum altitude 05:05:49 10° 101° (ESE) 1,705 ? -10.6°
Drops below altitude 10° 05:06:30 10° 112° (ESE) 1,731 ? -10.5°
Sets 05:10:23 0° 154° (SSE) 2,617 ? -9.6°
